Location: New Frontier Mobile Home Park
(32.8448°N, 116.9675°W)
Time: 22:22:35
(UTC+00:00)

NOSS 3-4 (C) - Pass Details

Date: 14 July 2020
Orbit: 891 x 1321 km, 63.4° (Epoch: 12 July)

Event Time Altitude Azimuth Distance (km) Brightness Sun altitude
Rises 04:50:44 0° 335° (NNW) 3,892 7.9 -20.2°
Reaches altitude 10° 04:53:23 10° 340° (NNW) 2,994 7.0 -20.6°
Maximum altitude 05:00:25 53° 56° (NE) 1,448 4.3 -21.6°
Enters shadow 05:03:38 34° 113° (ESE) 1,918 4.5 -22.1°
